Kincheloe, MI

11:58 AM EST on December 04, 2016 (GMT -0500)
Chippewa County International

Weather History for KCIU - July, 2014

Change the Weather History Date:

Saturday, July 26, 2014

  Actual Average Record
Temperature  
Mean Temperature 64 °F -  
Max Temperature 68 °F 75 °F 87 °F (1989)
Min Temperature 60 °F 52 °F 40 °F (1991)
Degree Days  
Heating Degree Days 1    
Growing Degree Days 14 (Base 50)    
Moisture  
Dew Point 63 °F    
Average Humidity 97    
Maximum Humidity 100    
Minimum Humidity 94    
Precipitation  
Precipitation 0.01 in - - ()
Sea Level Pressure  
Sea Level Pressure 29.77 in    
Wind  
Wind Speed 4 mph (SW)    
Max Wind Speed 14 mph    
Max Gust Speed 16 mph    
Visibility 7 miles    
Events Thunderstorm    
Averages and records for this station are not official NWS values.
T = Trace of Precipitation, MM = Missing Value Source: NWS Daily Summary

Daily Weather History Graph

Daily Weather History Graph

Search for Another Location

Airport or City:

Trip Planner

Search our weather history database for the weather conditions in past years. The results will help you decide how hot, cold, wet, or windy it might be!

Date:

Astronomy

Jul. 26, 2014 Rise Set
Actual Time 6:12 AM EDT 9:15 PM EDT
Civil Twilight 5:36 AM EDT 9:51 PM EDT
Nautical Twilight 4:50 AM EDT 10:36 PM EDT
Astronomical Twilight 3:54 AM EDT 11:32 PM EDT
Moon 6:08 AM EDT (7/26) 8:44 PM EDT (7/26)
Length of Visible Light 16h 14m
Length of Day
15h 03m
Waning Crescent, 0% of the Moon is Illuminated
Jul 26
Waning Crescent
Jul 26
New
Aug 3
First Quarter
Aug 10
Full
Aug 17
Last Quarter

Hourly Weather History & Observations

Time (EDT) Temp. Dew Point Humidity Pressure Visibility Wind Dir Wind Speed Gust Speed Precip Events Conditions
12:15 AM 60.8 °F 60.8 °F 100% 29.86 in 10.0 mi Calm Calm - N/A   Overcast
12:35 AM 60.8 °F 60.8 °F 100% 29.86 in 10.0 mi South 3.5 mph - N/A   Overcast
1:15 AM 60.8 °F 60.8 °F 100% 29.85 in 10.0 mi SSW 3.5 mph - N/A   Partly Cloudy
1:35 AM 60.8 °F 60.8 °F 100% 29.85 in 10.0 mi SSW 4.6 mph - N/A   Mostly Cloudy
1:55 AM 60.8 °F 60.8 °F 100% 29.84 in 10.0 mi SSW 4.6 mph - N/A   Overcast
2:15 AM 60.8 °F 60.8 °F 100% 29.84 in 10.0 mi South 3.5 mph - N/A   Overcast
2:35 AM 60.8 °F 60.8 °F 100% 29.84 in 10.0 mi South 4.6 mph - N/A   Overcast
2:55 AM 60.8 °F 60.8 °F 100% 29.84 in 10.0 mi South 4.6 mph - N/A   Overcast
3:15 AM 60.8 °F 59.0 °F 94% 29.83 in 10.0 mi South 6.9 mph - N/A   Overcast
3:35 AM 60.8 °F 59.0 °F 94% 29.83 in 10.0 mi SSW 4.6 mph - N/A   Overcast
3:55 AM 60.8 °F 59.0 °F 94% 29.83 in 10.0 mi SSW 4.6 mph - N/A   Overcast
4:15 AM 62.6 °F 60.8 °F 94% 29.82 in 10.0 mi SSW 3.5 mph - N/A   Overcast
4:35 AM 62.6 °F 60.8 °F 94% 29.82 in 10.0 mi Calm Calm - N/A   Overcast
4:55 AM 62.6 °F 60.8 °F 94% 29.82 in 10.0 mi SSW 4.6 mph - N/A   Overcast
5:15 AM 60.8 °F 59.0 °F 94% 29.82 in 10.0 mi SW 4.6 mph - N/A   Overcast
5:35 AM 62.6 °F 60.8 °F 94% 29.82 in 10.0 mi SW 4.6 mph - N/A   Overcast
5:55 AM 60.8 °F 59.0 °F 94% 29.82 in 10.0 mi SW 3.5 mph - N/A   Overcast
6:15 AM 62.6 °F 60.8 °F 94% 29.82 in 10.0 mi SW 3.5 mph - N/A   Overcast
6:35 AM 60.8 °F 59.0 °F 94% 29.81 in 10.0 mi South 3.5 mph - N/A   Overcast
7:15 AM 62.6 °F 60.8 °F 94% 29.81 in 10.0 mi SSW 4.6 mph - N/A   Overcast
7:35 AM 62.6 °F 62.6 °F 100% 29.81 in 10.0 mi SSW 5.8 mph - N/A   Overcast
7:55 AM 62.6 °F 62.6 °F 100% 29.80 in 10.0 mi South 3.5 mph - N/A   Overcast
8:15 AM 62.6 °F 62.6 °F 100% 29.80 in 10.0 mi South 3.5 mph - N/A   Overcast
8:35 AM 64.4 °F 62.6 °F 94% 29.80 in 10.0 mi SSW 3.5 mph - N/A   Overcast
8:55 AM 64.4 °F 62.6 °F 94% 29.81 in 10.0 mi South 5.8 mph - N/A   Overcast
9:15 AM 64.4 °F 62.6 °F 94% 29.81 in 10.0 mi South 5.8 mph - N/A   Overcast
9:35 AM 64.4 °F 62.6 °F 94% 29.81 in 10.0 mi South 4.6 mph - N/A   Overcast
9:55 AM 64.4 °F 62.6 °F 94% 29.80 in 10.0 mi South 5.8 mph - N/A   Overcast
10:15 AM 64.4 °F 62.6 °F 94% 29.79 in 10.0 mi South 5.8 mph - N/A   Overcast
11:55 AM 66.2 °F 64.4 °F 94% 29.77 in 9.0 mi South 6.9 mph - N/A Thunderstorm Overcast
12:15 PM 66.2 °F 64.4 °F 94% 29.77 in 9.0 mi South 6.9 mph - N/A Thunderstorm Overcast
1:35 PM 66.2 °F 66.2 °F 100% 29.75 in 10.0 mi South 6.9 mph - N/A   Overcast
1:55 PM 66.2 °F 64.4 °F 94% 29.75 in 10.0 mi SSW 9.2 mph - N/A   Overcast
2:15 PM 66.2 °F 64.4 °F 94% 29.75 in 10.0 mi SSW 3.5 mph - N/A   Overcast
2:35 PM 66.2 °F 64.4 °F 94% 29.74 in 5.0 mi WSW 5.8 mph - N/A Thunderstorm Overcast
2:55 PM 64.4 °F 64.4 °F 100% 29.76 in 5.0 mi NW 13.8 mph - N/A Thunderstorm Thunderstorm
3:15 PM 64.4 °F 62.6 °F 94% 29.77 in 1.5 mi WNW 6.9 mph - N/A Thunderstorm Thunderstorm
3:35 PM 64.4 °F 62.6 °F 94% 29.75 in 2.5 mi Calm Calm - N/A Thunderstorm Thunderstorm
3:55 PM 66.2 °F 64.4 °F 94% 29.74 in 3.0 mi South 8.1 mph - N/A   Mostly Cloudy
4:15 PM 68.0 °F 66.2 °F 94% 29.74 in 10.0 mi SSW 6.9 mph - N/A   Mostly Cloudy
4:35 PM 66.2 °F 66.2 °F 100% 29.73 in 7.0 mi SSW 6.9 mph - N/A   Overcast
4:55 PM 64.4 °F 62.6 °F 94% 29.73 in 3.0 mi WSW 6.9 mph - N/A   Overcast
5:15 PM 64.4 °F 64.4 °F 100% 29.72 in 2.5 mi SW 6.9 mph - N/A   Overcast
5:35 PM 64.4 °F 64.4 °F 100% 29.72 in 2.5 mi SW 5.8 mph - N/A   Overcast
5:55 PM 64.4 °F 64.4 °F 100% 29.72 in 3.0 mi WSW 5.8 mph - N/A   Overcast
6:15 PM 66.2 °F 64.4 °F 94% 29.72 in 3.0 mi WSW 5.8 mph - N/A   Overcast
6:35 PM 66.2 °F 66.2 °F 100% 29.72 in 4.0 mi SW 4.6 mph - N/A   Overcast
6:55 PM 66.2 °F 64.4 °F 94% 29.73 in 3.0 mi WSW 6.9 mph - N/A   Overcast
7:15 PM 66.2 °F 66.2 °F 100% 29.72 in 3.0 mi WSW 5.8 mph - N/A   Overcast
7:35 PM 66.2 °F 64.4 °F 94% 29.72 in 4.0 mi SW 5.8 mph - N/A   Overcast
7:55 PM 66.2 °F 64.4 °F 94% 29.72 in 4.0 mi SW 3.5 mph - N/A   Overcast
8:15 PM 66.2 °F 64.4 °F 94% 29.72 in 4.0 mi WSW 4.6 mph - N/A   Overcast
8:35 PM 66.2 °F 66.2 °F 100% 29.73 in 4.0 mi SW 4.6 mph - N/A   Overcast
8:55 PM 66.2 °F 66.2 °F 100% 29.73 in 3.0 mi SW 4.6 mph - N/A   Overcast
9:15 PM 66.2 °F 66.2 °F 100% 29.73 in 2.5 mi Calm Calm - N/A   Overcast
9:35 PM 66.2 °F 66.2 °F 100% 29.73 in 2.5 mi West 4.6 mph - N/A   Overcast
9:55 PM 66.2 °F 66.2 °F 100% 29.73 in 3.0 mi Calm Calm - 0.01 in   Mostly Cloudy
10:15 PM 64.4 °F 62.6 °F 94% 29.73 in 1.2 mi West 3.5 mph - N/A   Scattered Clouds
10:35 PM 64.4 °F 64.4 °F 100% 29.72 in 1.0 mi West 4.6 mph - N/A   Mostly Cloudy
10:55 PM 64.4 °F 64.4 °F 100% 29.72 in 10.0 mi NW 9.2 mph - N/A   Mostly Cloudy
11:15 PM 64.4 °F 64.4 °F 100% 29.73 in 10.0 mi WNW 11.5 mph 16.1 mph N/A   Overcast
11:35 PM 64.4 °F 62.6 °F 94% 29.73 in 10.0 mi West 8.1 mph - N/A   Overcast
11:55 PM 62.6 °F 62.6 °F 100% 29.72 in 10.0 mi West 6.9 mph - N/A   Overcast